Regional Weather Roundup
Issued by NWS Wakefield, VA

Home | Current Version | Previous Version | Graphics & Text | Print | Product List | Glossary On
Versions: 1 2 3 4 5 6 7 8 9 10 11 12 13 14 15 16 17 18 19 20 21 22 23 24 25 26 27 28 29 30 31 32 33 34 35 36 37 38 39 40 41 42 43 44 45 46 47 48 49 50
000
ASUS41 KAKQ 202114
RWRAKQ

REGIONAL WEATHER ROUNDUP
NATIONAL WEATHER SERVICE WAKEFIELD VA
400 PM EST MON FEB 20 2017

Note: "fair" indicates few or no clouds below 12,000 feet with no
significant weather and/or obstructions to visibility. * = Denotes
station may not report precipitation (e.g., rain,snow,etc.),
thunder or fog.

VAZ042-051-052>054-056-202200-
NORTHERN VIRGINIA

CITY           SKY/WX    TMP DP  RH WIND       PRES   REMARKS
WASH NATIONAL  MOSUNNY   68  30  24 N9        30.19S
DULLES         MOSUNNY   64  33  31 N9        30.20R
FORT BELVOIR   SUNNY     67  28  23 NW10      30.19R
QUANTICO       SUNNY     64  36  35 NE10      30.19S
FREDERICKSBRG* SUNNY     67  39  35 E7        30.17S
STAFFORD*      SUNNY     67  37  33 N7        30.22S
WARRENTON      SUNNY     69  30  23 N6        30.18S
CULPEPER*      SUNNY     69  38  32 E6        30.18S
MANASSAS*      SUNNY     67  36  31 N9        30.19S
LEESBURG*      SUNNY     64  37  36 N3G17     30.21R
WINCHESTER     SUNNY     64  34  32 N3        30.19R
FRONT ROYAL*   CLEAR     68  37  32 N7        30.17R
LURAY*         CLEAR     70  37  30 CALM      30.17R
$$

VAZ048-049-060>072-079>083-202200-
CENTRAL AND SOUTH CENTRAL VIRGINIA

CITY           SKY/WX    TMP DP  RH WIND       PRES   REMARKS
RICHMOND       PTSUNNY   69  38  32 VRB3      30.17S
CHESTERFIELD*  FAIR      70  32  24 N6        30.19S
PETERSBURG*    SUNNY     68  32  26 NE9       30.18S
HANOVER        SUNNY     69  36  29 NW6       30.18F
TAPPAHANNOCK*  SUNNY     66  22  18 N6        30.18S
QUINTON*       FAIR      67  40  37 NW5       30.17S
CHARLOTTSVILLE SUNNY     73  31  21 CALM      30.16S
GORDONSVILLE*  CLEAR     69  36  29 E3        30.16S
ORANGE*        SUNNY     68  36  30 CALM      30.18S
LOUISA*        SUNNY     72  39  30 CALM      30.16S
BUMPASS*       FAIR      68  32  26 N6        30.17S
FARMVILLE*     CLOUDY    72  36  26 CALM      30.17R
CREWE*         FAIR      68  36  31 NE3       30.18R
FORT PICKETT*  FAIR      68  24  19 NW7       30.18R
CHASE CITY*    FAIR      69  32  25 CALM      30.17S
CLARKSVILLE*   FAIR      68  39  34 CALM      30.17S
SOUTH HILL*    MOSUNNY   68  37  31 CALM      30.23R
LAWRENCEVILLE* FAIR      68  36  30 CALM      30.17S
EMPORIA*       SUNNY     70  34  26 CALM      30.19R
$$

VAZ088>098-202200-
SOUTHEAST VIRGINIA

CITY           SKY/WX    TMP DP  RH WIND       PRES   REMARKS
NORFOLK        SUNNY     58  37  45 NE7       30.19R
VIRGINIA BEACH MOSUNNY   58  35  42 E7        30.18R
NORFOLK NAVAL  MOSUNNY   60  33  36 NE9       30.20S
WEST POINT*    SUNNY     67  34  29 CALM      30.19S
SALUDA*        FAIR      59  38  45 E5        30.19S
NEWPORT NEWS   SUNNY     59  37  44 E10       30.19S
LANGLEY AFB    SUNNY     58  38  47 NE7       30.19R
FORT EUSTIS    SUNNY     65  38  35 E7        30.16R
WILLIAMSBURG*  SUNNY     72  43  35 CALM      30.19R
HR EXEC AP*    FAIR      63  36  36 NE10      30.17S
FRANKLIN*      SUNNY     68  34  28 N6        30.18R
US460-WAKEFLD  SUNNY     69  39  33 N5        30.17S
$$

VAZ020-022-025-037-045-202200-
WEST CENTRAL AND SOUTHWEST VIRGINIA

CITY           SKY/WX    TMP DP  RH WIND       PRES   REMARKS
STAUNTON*      SUNNY     66  32  28 CALM      30.20R
WAYNESBORO*    CLEAR     67  29  24 N3        30.18S
HOT SPRINGS VA CLOUDY    59  14  17 CALM      30.23S
LYNCHBURG      MOSUNNY   69  32  25 S5        30.18S
DANVILLE       CLOUDY    69  38  32 CALM      30.18R
SOUTH BOSTON*  FAIR      70  32  24 CALM      30.17S
MARTINSVILLE   MOSUNNY   71  33  24 SE5       30.19S
ROANOKE        CLOUDY    71  24  17 VRB5      30.18S
BLACKSBURG     SUNNY     68  30  24 SE3       30.21S
DUBLIN*        SUNNY     69  26  19 CALM      30.19S
MARION*        SUNNY     70  24  17 E6        30.20R
HILLSVILLE*    CLOUDY    67  33  27 CALM      30.18S
RICHLANDS*     FAIR      70  26  19 CALM      30.17F
WISE*          MOSUNNY   68  21  17 CALM      30.18S
ABINGDON*      MOSUNNY   72  24  16 CALM      30.16F
$$

MDZ021>025-VAZ099-100-202200-
SOUTHERN MARYLAND AND THE DELMARVA PENINSULA

CITY           SKY/WX    TMP DP  RH WIND       PRES   REMARKS
PATUXENT RIVER SUNNY     59  35  40 NE10      30.20R
BAY BRIDGE APT SUNNY     61  34  36 N9        30.21S
LEONARDTOWN    SUNNY     59  32  36 NE5       30.21S
DOVER          SUNNY     58  37  44 N13       30.19R
GEORGETOWN     SUNNY     61  34  36 N10       30.19R
EASTON         MOSUNNY   63  32  31 NE10      30.24R
CAMBRIDGE      NOT AVBL
SALISBURY      SUNNY     61  33  35 NW13      30.19R
OCEAN CITY     SUNNY     57  33  40 NE12      30.19R
WALLOPS ISLAND SUNNY     55  38  52 SE6       30.20R
ACCOMACK*      SUNNY     61  36  39 NW7       30.19R
$$

NCZ012>017-030>032-202200-
NORTH CENTRAL AND EASTERN NORTH CAROLINA

CITY           SKY/WX    TMP DP  RH WIND       PRES   REMARKS
ROANOKE RAPIDS FAIR      68  37  32 CALM      30.17R
RALEIGH        PTSUNNY   71  31  22 SE3       30.17S
ELIZABETH CITY SUNNY     63  39  41 NE7       30.18R
AHOSKIE*         N/A     68  32  26 N5        30.17S
EDENTON*       SUNNY     63  41  45 SE9       30.19R
CURRITUCK*     SUNNY     58  39  49 E6        30.19S
KILL DEVIL HLS NOT AVBL
MANTEO         SUNNY     55  40  57 E9        30.20R
CAPE HATTERAS  SUNNY     59  44  57 NE8G16    30.18S
TARBORO*       NOT AVBL
GOLDSBORO      SUNNY     72  31  21 N5        30.15R
WASHINGTON     SUNNY     69  37  30 NE6       30.17R
GREENVILLE     NOT AVBL
NEW BERN       SUNNY     69  40  34 E6        30.17S
WILMINGTON     SUNNY     66  46  48 E8        30.16R
$$

VAZ048-202200-
ELSEWHERE

CITY           SKY/WX    TMP DP  RH WIND       PRES   REMARKS
HARRISBURG PA  PTSUNNY   58  26  29 N10       30.23R
BALTIMORE      MOSUNNY   62  29  28 N7        30.19S
ANNAPOLIS      SUNNY     58  34  40 NE9       30.20S
ANDREWS AFB    SUNNY     64  31  28 N9        30.18S
PHILADELPHIA   MOSUNNY   57  22  25 NW12G23   30.21S
HENDERSON NC   SUNNY     66  33  29 CALM      30.18S
GREENSBORO     CLOUDY    71  36  27 SE3       30.16R
ROCKY MOUNT    MOSUNNY   70  37  29 NW6       30.17R
$$

VAZ100-202200-
MARINE

STATION/POSITION TIME  TEMP    WIND        PRES    WAVE   SWELL
                       AIR SEA DIR/SP/G            HT/PER HT/PER
                 (UTC) (F)     (DEG/KT/KT) (MB)    (FT/S) (FT/S)
CAPE MAY NJ      2048   48 43  330/  8/ 12 1022.0R
LEWES DE         2048   49 43  330/  8/ 10 1022.5R
OCEAN-CITY-INLET 2048   56 44   30/ 10/ 14 1022.6R
WACHAPREAGUE VA  2048   51 50   90/  8/ 11 1022.5R
THOMAS POINT MD  2100   53 43   30/ 13/ 13   N/A
GOOSES REEF MD   2100   51 45   10/  2/  2 1023.3
COVE POINT MD    2048   52      20/  8/  9 1023.0F
SOLOMONS ISLAND  2048   57 42   30/  8/ 12   N/A
BISHOPS HEAD MD  2048   60 52  360/  8/ 10 1022.6R
PINEY POINT MD   2048           80/  6/  8   N/A
POTOMAC MD       2100   55 43   20/  6/ 10 1021.7
CAMBRIDGE MD     2048   54 41  340/  9/ 10 1021.8R
LEWISETTA VA     2048   53 47  120/  4/  4 1022.1R
RAPPAHANNOCK LGT 2048           20/ 13/ 14 1022.7F
YORK RVR RNG VA  2048   51      70/  6/  7 1021.6R
YORKTOWN VA      2048   53 44  110/ 10/ 11 1021.8S
JAMESTOWN VA     2050   63     280/  4/  4   N/A
DOMINION TERM VA 2048   57      70/  9/ 12 1022.2S
KIPTOPEKE VA     2048      47  120/  8/ 11   N/A
CHES BAY BRIDGE  2048   52 45  100/  7/  9 1022.2R
CAPE HENRY VA    2048   53     110/  7/  9   N/A
WILLOUBY STN VA  2048   53      20/  7/  8 1023.3R
S CRANEY ISL VA  2048   57      50/ 12/ 14 1022.0R
CAPE HENRY BUOY  2042      48                N/A     1/ 7
OFFSHORE WE BUOY 2051      49                N/A     1/ 5
64NM E OF VA BCH 2050   52 53   30/ 12/ 14 1021.7R   3/ 5   2/ 7
DUCK PIER NC     2048   50 49   40/  8/ 10 1021.9R
44100 DUCK FRF   2035      49                N/A     1/ 7
44056 DUCK FRF   2030      49                N/A     1/ 3
OREGON INLET NC  2042   51 52   10/  9/ 12 1022.0S
HATTERAS NC      2048   55 57   10/ 12/ 15 1021.5S
DIAMOND SHLS NC  2050   59 64   20/ 17/ 19 1021.3S   4/ 6   2/ 8
CAPE LOOKOUT NC  2000   58      40/ 15/ 16 1021.5R
$$



USA.gov is the U.S. government's official web portal to all federal, state and local government web resources and services.